Погода в Багдарине

Погода в Багдарине : погода сейчас, прогноз погоды и архив. Всё, что Вы хотите узнать о погоде в Багдарине!

Поиск расширенной информации на нашем сайте:

Другие новости

Новости СМИ2

Главная страница сайта

Новости сайта

03.07.2017

Напоминаем, что на нашем специализированном сайте Метеоцентр.Азия вы можете получить высокодетализированные автоматические прогнозы погоды по пунктам России, СНГ и мира в авиационном формате (включающие направление и скорость ветра, видимость, явления погоды, количество и форму облачности, нижнюю и верхнюю границу облачности).


Погода в Багдарине - сегодня

Время (UTC), дата Ветер
(°,м/с) 
Видим.   Явления Облачность Т
(°С)
Тd
(°С)
f(%) Тe
(°С)
Pmin
(гПа)
dP
(гПа)
Po
(мм)
O2
(г/м3)
Тmin Tmax R s Состояние
почвы
18 21.06.18 тихо ()   н/о    8/0 верхняя 
[Ci fib]
+9.2 +5.4 77 +9  1004.4  1.2  676  263           
21 21.06.18 220 (ЮЗ) 20000 м    8/0 средняя, верхняя 
[Ac lent|Ci fib]
+9.6 +6 78 +11  1004.8  0.5  677  262           
00 22.06.18 160 (Ю) 20000 м    9/0 средняя, верхняя 
[Ac As|Ci fib]
+14.5 +7.9 65 +16  1003.1  0.2  677  257  +8.2        сухая 
03 22.06.18 350 (С) 20000 м    10/1 1000 м средняя, верхняя 
[Cu med, cong|Ac trans|Ci fib]
+25 +7.5 33 +25  998.6  -0.8  676  248           
06 22.06.18 020 (С) 20000 м    10/1 1000 м средняя, верхняя 
[Cu med, cong|Ac trans|Cs]
+26.4 +7.1 29 +26  997.3  -0.7  676  247           
09 22.06.18 310 (СЗ) 20000 м    10/1 1000 м средняя, верхняя 
[Sc|Ac und|Ci fib]
+25.2 +6.8 31 +25  998.1  0.3  676  248           
15 22.06.18 тихо ()   н/о    8/1 1000 м средняя, верхняя 
[Sc|Ac trans|Ci fib]
+12 +9 82 +14  1004.9  1.1  677  260           
18 22.06.18 тихо ()   н/о    10/1 1000 м средняя, верхняя 
[Sc|Ac trans|Ci fib]
+10.7 +8.6 87 +12  1005.9  0.5  678  261           
21 22.06.18 220 (ЮЗ) 20000 м    10/3 1000 м средняя, верхняя 
[Sc|Ac trans|Ci fib]
+8.5 +7 90 +10  1006.7  -0.1  678  264           
00 23.06.18 тихо ()   20000 м    10/8 1000 м средняя, верхняя 
[Sc|Ac trans|Ci sp]
+14.1 +10 76 +17  1004.2  -0.1  678  258  +8.3        сухая 
03 23.06.18 220 (ЮЗ) 20000 м    10/5 1000 м средняя 
[Sc|Ac As]
+18.8 +11.2 61 +25  1001.3  -1.1  677  253           
06 23.06.18 130 (ЮВ) 10 км  слаб. дождь  10/10 600 м кучево-дожд. 
[Cb cap|Ns]
+14.7 +13.1 90 +24  1003.3  0.5  677  256           
09 23.06.18 080 (В) 10 км    н/о 
+14.6 +12.7 88 +22  1001.6  -1.5  676  256           
12 23.06.18 140 (ЮВ) 10 км  слаб. дождь  10/10 300 м 
[Frnb|Ns]
+14 +12.5 91 +22  1000.7  -1.1  675  256    +19.7  11     
15 23.06.18 130 (ЮВ) н/о  {дождь}  8/5 300 м средняя 
[Sc|Ac trans]
+12.4 +10.7 89 +18  1001.6  0.2  675  258           
18 23.06.18 тихо ()   н/о  туман на расстоянии{дождь}  10/0 средняя 
[Ac As]
+8.2 +7.4 95 +8  1004.1  0.8  676  263           
21 23.06.18 300 (СЗ) 10 км  туман на расстоянии  10/0 средняя, верхняя 
[Ac As|Ci sp]
+9.3 +8.5 95 +11  1003.7  -0.1  676  262           
00 24.06.18 170 (Ю) 0500 м  туман  ?/?  
+12.1 +10.9 92 +18  1002.5  0.1  676  259  +8.2    0.6    влажная 
03 24.06.18 180 (Ю) 20000 м  в посл. час туман{ливн. осадки}  10/5 1000 м кучево-дожд., верхняя 
[Cb cap|Ci fib]
+16.4 +12.7 79 +24  1000.1  -0.7  675  254           
06 24.06.18 040 (СВ) 10 км  слаб. ливневой дождь{туман}  10/10 300 м кучево-дожд. 
[Cb cap]
+15.2 +12 81 +15  999.8  -0.7             
09 24.06.18 340 (С) 10 км  слаб. дождь{ливн. осадки}  10/10 300 м 
[Frnb|Ns]
+14.4 +11.5 83 +15  999.9  -0.2             
12 24.06.18 340 (С) 10 км  слаб. дождь{ливн. осадки}  10/10 300 м 
[Frnb|Ns]
+13.2 +11.1 87 +14  999.9  -0.4      +17.2     
15 24.06.18 320 (СЗ) н/о  слаб. дождь  10/10 300 м 
[Frnb|Ns]
+12.6 +11.3 92 +13  1000  0.1             
18 24.06.18 310 (СЗ) н/о  слаб. дождь  10/10 300 м 
[Frnb|Ns]
+12.5 +11 91 +13  999  -0.9             
21 24.06.18 340 (С) 10 км  слаб. дождь  10/10 300 м 
[Frnb|Ns]
+12.4 +10.2 86 +12  997.7  -1.2             
Время (UTC), дата Ветер
(°,м/с) 
Видим.   Явления Облачность Т
(°С)
Тd
(°С)
f(%) Тe
(°С)
Pmin
(гПа)
dP
(гПа)
Po
(мм)
O2
(г/м3)
Тmin Tmax R s Состояние
почвы

Для получения пояснительной информации подведите курсор к названию столбца.

ПОГОДА в Багдарине - архив

Всё, что Вы хотите узнать о погоде в Багдарине - удобно и подробно!

Выберите нужную дату (начиная с 1 января 2015* года) и нажмите кнопку "Найти".
Будут отображены архивные сводки погоды по пункту Багдарин, начиная с указанной даты.


Отображать данные в формате CSV (для использования в таблицах Excel)


Внимание! Наш архив погоды предназначен исключительно для личного некоммерческого использования в познавательных целях. Если Вам необходимы официальные справки о состоянии погоды (для производственных, юридических, коммерческих и т.п. целей), обращайтесь в органы Росгидромета.

*Примечание: данная дата относится к архиву по метеостанциям СССР (Россия, СНГ, Балтия).
Архив по метеостанциям Зарубежной Европы и Азии (кроме Китая) хранится 10 дней, по другим регионам земного шара (Китай, Африка, Америка, Австралия, Океания) - 1 день.

Багдарин - район местоположения метеостанции


Название, широта, долгота, высота метеостанции:
Багдарин 54.5°ш. 113.6°д. 903 м над ур. моря [Российская Федерация]

Дополнительная информация

В oтличие oт бoльшинства пoгoдных сайтoв мы публикуем пoдрoбную метеoинфoрмацию в детальнoм прoфессиoнальнoм фoрмате.

Характеристики температуры и влажнoсти вoздуха измеряются на высoте 2 м в тени вдали oт зданий и деревьев.
Скoрoсть ветра измеряется на высoте 10 м (на урoвне рoста челoвека скoрoсть ветра ниже в 1.5-2 раза). Если метеoстанция нахoдится в гoрoде или в лесу, тo скoрoсть ветра занижена на 2-4 м/с пo сравнению с oткрытым местoм. Скoрoсть ветра над акватoриями крупных рек и oзёр, а также на вершинах хoлмoв на 2-5 м/с выше, чем в oбычных услoвиях.
Атмoсфернoе давление в разных тoчках местнoсти мoжет значительнo oтличаться oт давления на метеoстанции, в зависимoсти oт услoвий рельефа (при пoдъёме на 10 м давление пoнижается примернo на 1 мм рт.ст.).